GW1515 Weather Reports


Display with metric or nautical units.
time (UTC)temp
F
wind
direction
speed
MPH
gust
MPH
rain 1hr
in
rain 24hr
in
rain mn
in
humidity
%
barometer
mb
20260903090448 78 213 2.0 6.0 0.00 0.00 0.00 87 1014.7
20260903085946 78 220 2.0 5.0 0.00 0.00 0.00 87 1014.6
20260903085445 78 195 3.0 6.0 0.00 0.00 0.00 88 1014.7
20260903084940 78 201 3.0 5.0 0.00 0.00 0.00 88 1014.9
20260903084438 78 213 3.0 5.0 0.00 0.00 0.00 88 1014.6
20260903083933 78 212 4.0 5.0 0.00 0.00 0.00 88 1014.6
20260903083429 78 206 4.0 8.0 0.00 0.00 0.00 89 1014.5
20260903082928 78 225 1.0 6.0 0.00 0.00 0.00 89 1014.6
20260903082423 78 194 3.0 5.0 0.00 0.00 0.00 90 1014.7
20260903081918 78 196 4.0 6.0 0.00 0.00 0.00 89 1014.7
20260903081414 78 205 3.0 4.0 0.00 0.00 0.00 89 1014.7
20260903080910 78 197 1.0 4.0 0.00 0.00 0.00 89 1014.7
20260903080406 78 205 3.0 6.0 0.00 0.00 0.00 90 1014.9
20260903075901 78 218 3.0 5.0 0.00 0.00 0.00 90 1014.4
20260903075357 78 207 3.0 5.0 0.00 0.00 0.00 91 1014.6
20260903074851 78 212 3.0 5.0 0.00 0.00 0.00 91 1014.9
20260903074345 78 187 2.0 3.0 0.00 0.00 0.00 92 1014.7
20260903073841 78 212 3.0 5.0 0.00 0.00 0.00 92 1014.3
20260903073336 78 182 1.0 5.0 0.00 0.00 0.00 92 1014.7
20260903072832 78 205 2.0 5.0 0.00 0.00 0.00 92 1014.7
20260903072327 78 203 2.0 4.0 0.00 0.00 0.00 92 1014.6
20260903071824 78 195 2.0 4.0 0.00 0.00 0.00 92 1014.7
20260903071320 78 175 2.0 4.0 0.00 0.00 0.00 92 1014.5
20260903070814 78 190 2.0 4.0 0.00 0.00 0.00 92 1014.7
20260903070310 78 205 0.0 2.0 0.00 0.00 0.00 92 1014.5
20260903065804 78 216 1.0 2.0 0.00 0.00 0.00 92 1014.9
20260903065306 78 176 1.0 2.0 0.00 0.00 0.00 92 1015.0
20260903064802 78 185 2.0 3.0 0.00 0.00 0.00 92 1014.7
20260903064253 78 199 0.0 2.0 0.00 0.00 0.00 92 1014.7
20260903063749 78 183 2.0 2.0 0.00 0.00 0.00 92 1014.7
20260903063243 78 188 1.0 2.0 0.00 0.00 0.00 92 1014.8
20260903062740 78 171 2.0 2.0 0.00 0.00 0.00 92 1014.6
20260903062238 78 217 0.0 2.0 0.00 0.00 0.00 91 1014.7
20260903061735 78 191 2.0 2.0 0.00 0.00 0.00 91 1014.7
20260903061233 78 198 0.0 2.0 0.00 0.00 0.00 91 1014.9
20260903060730 79 222 1.0 3.0 0.00 0.00 0.00 91 1014.7
20260903060229 79 212 2.0 4.0 0.00 0.00 0.00 90 1014.7
20260903055727 79 194 0.0 2.0 0.00 0.00 0.00 90 1014.7
20260903055226 79 182 2.0 4.0 0.00 0.00 0.00 90 1014.7
20260903054721 79 231 0.0 3.0 0.00 0.00 0.00 90 1014.9
20260903054216 79 243 2.0 5.0 0.00 0.00 0.00 90 1014.3
20260903053713 79 206 1.0 4.0 0.00 0.00 0.00 90 1015.0
20260903053207 79 212 1.0 4.0 0.00 0.00 0.00 90 1014.7
20260903052703 79 230 3.0 3.0 0.00 0.00 0.00 90 1014.7
20260903052158 79 195 3.0 3.0 0.00 0.00 0.00 90 1014.6
20260903051653 80 188 2.0 3.0 0.00 0.00 0.00 90 1014.5
20260903051149 80 174 1.0 4.0 0.00 0.00 0.00 89 1014.6
20260903050644 80 266 0.0 3.0 0.00 0.00 0.00 89 1014.7
20260903050138 80 190 3.0 4.0 0.00 0.00 0.00 89 1014.4
20260903045637 80 222 2.0 4.0 0.00 0.00 0.00 89 1014.7
20260903045134 80 196 3.0 5.0 0.00 0.00 0.00 89 1014.3
20260903044630 80 210 4.0 5.0 0.00 0.00 0.00 89 1014.6
20260903044125 80 225 2.0 5.0 0.00 0.00 0.00 89 1014.6
20260903043621 80 208 3.0 5.0 0.00 0.00 0.00 89 1014.6
20260903043120 80 216 2.0 4.0 0.00 0.00 0.00 89 1014.6
20260903042615 80 256 2.0 3.0 0.00 0.00 0.00 89 1014.6
20260903042110 80 226 2.0 3.0 0.00 0.00 0.00 89 1014.6
20260903041607 80 199 4.0 5.0 0.00 0.00 0.00 88 1014.6
20260903041102 80 255 2.0 3.0 0.00 0.00 0.00 88 1014.6
20260903040600 81 256 2.0 4.0 0.00 0.00 0.00 88 1014.4
20260903040057 81 195 3.0 4.0 0.00 0.00 0.00 88 1014.4
20260903035553 81 168 0.0 5.0 0.00 0.00 0.00 87 1014.4
20260903035048 81 191 3.0 6.0 0.00 0.00 0.00 87 1014.4
20260903034543 81 196 3.0 5.0 0.00 0.00 0.00 86 1014.2
20260903034038 81 208 3.0 5.0 0.00 0.00 0.00 86 1014.2
20260903033533 82 221 2.0 4.0 0.00 0.00 0.00 85 1014.2
20260903033028 82 176 3.0 6.0 0.00 0.00 0.00 85 1014.2
20260903032523 82 200 2.0 6.0 0.00 0.00 0.00 84 1014.2
20260903032019 82 205 4.0 6.0 0.00 0.00 0.00 84 1014.2
20260903031518 82 188 3.0 6.0 0.00 0.00 0.00 84 1014.3
20260903031014 82 191 3.0 5.0 0.00 0.00 0.00 84 1014.2
20260903030509 82 197 1.0 5.0 0.00 0.00 0.00 84 1014.3
20260903030005 83 208 2.0 6.0 0.00 0.00 0.00 83 1014.4
20260903025455 83 201 4.0 5.0 0.00 0.00 0.00 82 1014.2
20260903024950 83 213 4.0 6.0 0.00 0.00 0.00 82 1014.3
20260903024449 83 217 3.0 5.0 0.00 0.00 0.00 82 1014.6
20260903023944 83 209 3.0 6.0 0.00 0.00 0.00 82 1014.2
20260903023440 83 209 3.0 5.0 0.00 0.00 0.00 82 1014.5
20260903022935 83 223 3.0 8.0 0.00 0.00 0.00 82 1014.4
20260903022434 84 209 3.0 7.0 0.00 0.00 0.00 82 1014.4
20260903021932 84 218 2.0 5.0 0.00 0.00 0.00 82 1014.3
20260903021429 84 200 5.0 8.0 0.00 0.00 0.00 81 1014.4
20260903020929 84 236 2.0 7.0 0.00 0.00 0.00 81 1014.2
20260903020424 84 211 4.0 8.0 0.00 0.00 0.00 81 1014.3
20260903015919 84 201 4.0 7.0 0.00 0.00 0.00 81 1014.2
20260903015415 84 206 4.0 9.0 0.00 0.00 0.00 81 1013.9
20260903014909 84 194 3.0 5.0 0.00 0.00 0.00 81 1013.8
20260903014409 85 196 3.0 7.0 0.00 0.00 0.00 81 1014.1
20260903013904 85 212 3.0 6.0 0.00 0.00 0.00 80 1014.0
20260903013403 85 225 2.0 7.0 0.00 0.00 0.00 80 1013.9
20260903012903 85 209 4.0 6.0 0.00 0.00 0.00 79 1013.9
20260903012356 85 227 3.0 6.0 0.00 0.00 0.00 79 1013.7
20260903011855 85 229 3.0 5.0 0.00 0.00 0.00 79 1014.1
20260903011350 86 240 2.0 6.0 0.00 0.00 0.00 78 1014.0
20260903010846 86 229 2.0 6.0 0.00 0.00 0.00 77 1014.0
20260903010341 86 227 3.0 5.0 0.00 0.00 0.00 77 1014.0
20260903005839 86 210 2.0 7.0 0.00 0.00 0.00 77 1013.8
20260903005335 86 208 3.0 5.0 0.00 0.00 0.00 76 1013.6
20260903004831 87 225 3.0 8.0 0.00 0.00 0.00 75 1013.6
20260903004326 87 210 6.0 7.0 0.00 0.00 0.00 75 1013.6
20260903003821 87 199 4.0 5.0 0.00 0.00 0.00 75 1013.7
20260903003316 87 227 2.0 7.0 0.00 0.00 0.00 75 1013.8
20260903002816 87 225 4.0 5.0 0.00 0.00 0.00 75 1013.7
20260903002315 87 189 4.0 6.0 0.00 0.00 0.00 75 1013.6
20260903001810 87 212 3.0 8.0 0.00 0.00 0.00 74 1013.7
20260903001305 88 192 3.0 5.0 0.00 0.00 0.00 74 1013.7
20260903000800 88 213 2.0 8.0 0.00 0.00 0.00 73 1013.5
20260903000255 88 215 4.0 8.0 0.00 0.00 0.00 73 1013.8
20260902235753 89 213 4.0 7.0 0.00 0.00 0.00 73 1013.8
20260902235248 89 207 3.0 7.0 0.00 0.00 0.00 73 1013.8
20260902234748 89 211 2.0 8.0 0.00 0.00 0.00 73 1013.9
20260902234242 90 178 3.0 7.0 0.00 0.00 0.00 72 1013.8
20260902233742 90 205 2.0 6.0 0.00 0.00 0.00 72 1013.8
20260902233236 90 189 3.0 8.0 0.00 0.00 0.00 71 1014.0
20260902232734 91 213 4.0 7.0 0.00 0.00 0.00 70 1014.1
20260902232229 91 210 3.0 5.0 0.00 0.00 0.00 69 1013.9
20260902231728 91 220 3.0 5.0 0.00 0.00 0.00 67 1014.1
20260902231224 91 217 4.0 6.0 0.00 0.00 0.00 66 1013.7
20260902230719 92 223 5.0 8.0 0.00 0.00 0.00 65 1013.6
20260902230217 92 205 5.0 6.0 0.00 0.00 0.00 65 1014.0
20260902225713 92 224 4.0 7.0 0.00 0.00 0.00 65 1013.9
20260902225213 93 218 2.0 5.0 0.00 0.00 0.00 64 1014.0
20260902224711 93 217 3.0 7.0 0.00 0.00 0.00 64 1014.2
20260902224207 93 236 4.0 9.0 0.00 0.00 0.00 64 1013.8
20260902223703 93 218 4.0 8.0 0.00 0.00 0.00 63 1013.8
20260902223202 92 230 3.0 8.0 0.00 0.00 0.00 63 1013.9
20260902222701 93 217 5.0 9.0 0.00 0.00 0.00 62 1013.9
20260902222201 92 214 4.0 8.0 0.00 0.00 0.00 62 1014.0
20260902221654 93 244 3.0 9.0 0.00 0.00 0.00 62 1014.0
20260902221148 93 254 4.0 11.0 0.00 0.00 0.00 61 1014.0
20260902220644 93 216 8.0 13.0 0.00 0.00 0.00 60 1013.8
20260902220139 94 221 4.0 12.0 0.00 0.00 0.00 61 1013.9
20260902215635 94 208 7.0 10.0 0.00 0.00 0.00 59 1014.0
20260902215131 93 217 4.0 10.0 0.00 0.00 0.00 59 1014.1
20260902214625 93 239 2.0 15.0 0.00 0.00 0.00 58 1014.2
20260902214124 94 263 2.0 5.0 0.00 0.00 0.00 57 1014.2
20260902213620 94 249 4.0 11.0 0.00 0.00 0.00 58 1014.4
20260902213119 95 219 3.0 10.0 0.00 0.00 0.00 59 1014.2
20260902212615 95 246 1.0 7.0 0.00 0.00 0.00 59 1014.3
20260902212111 96 227 5.0 7.0 0.00 0.00 0.00 56 1014.2
20260902211607 96 229 5.0 10.0 0.00 0.00 0.00 57 1014.2
20260902211102 96 206 4.0 13.0 0.00 0.00 0.00 55 1014.2
20260902210601 96 250 4.0 7.0 0.00 0.00 0.00 56 1014.2
20260902210056 96 211 8.0 16.0 0.00 0.00 0.00 56 1014.2
20260902205555 95 208 4.0 12.0 0.00 0.00 0.00 57 1014.2
20260902205051 95 219 5.0 14.0 0.00 0.00 0.00 57 1014.2
20260902204550 97 216 4.0 9.0 0.00 0.00 0.00 54 1014.1
20260902204046 97 220 4.0 15.0 0.00 0.00 0.00 53 1014.2
20260902203541 96 213 5.0 11.0 0.00 0.00 0.00 55 1014.5
20260902203040 96 240 5.0 11.0 0.00 0.00 0.00 57 1014.2
20260902202536 95 208 0.0 14.0 0.00 0.00 0.00 58 1014.3
20260902202032 95 212 9.0 10.0 0.00 0.00 0.00 57 1014.4
20260902201527 96 213 3.0 10.0 0.00 0.00 0.00 56 1014.6
20260902201021 96 258 8.0 16.0 0.00 0.00 0.00 53 1014.6
20260902200516 96 220 5.0 10.0 0.00 0.00 0.00 57 1014.6
20260902200013 95 191 4.0 7.0 0.00 0.00 0.00 57 1014.6
20260902195508 95 230 6.0 10.0 0.00 0.00 0.00 56 1014.5
20260902195007 95 225 2.0 11.0 0.00 0.00 0.00 54 1014.3
20260902194501 96 224 7.0 12.0 0.00 0.00 0.00 56 1014.6
20260902193956 96 207 5.0 8.0 0.00 0.00 0.00 53 1014.6
20260902193452 96 219 6.0 10.0 0.00 0.00 0.00 57 1014.8
20260902192950 96 180 5.0 8.0 0.00 0.00 0.00 56 1014.8
20260902192450 96 211 8.0 14.0 0.00 0.00 0.00 56 1014.8
20260902191949 95 249 2.0 9.0 0.00 0.00 0.00 58 1014.8
20260902191444 96 263 4.0 8.0 0.00 0.00 0.00 57 1014.8
20260902190939 95 210 6.0 9.0 0.00 0.00 0.00 55 1014.9
20260902190435 95 232 3.0 9.0 0.00 0.00 0.00 58 1014.9
20260902185930 95 225 3.0 10.0 0.00 0.00 0.00 58 1015.0
20260902185426 95 236 10.0 13.0 0.00 0.00 0.00 58 1015.2
20260902184921 96 208 11.0 11.0 0.00 0.00 0.00 56 1015.2
20260902184416 95 240 4.0 9.0 0.00 0.00 0.00 57 1015.1
20260902183912 95 220 9.0 14.0 0.00 0.00 0.00 57 1015.2
20260902183408 96 248 2.0 6.0 0.00 0.00 0.00 57 1015.0
20260902182904 95 295 1.0 9.0 0.00 0.00 0.00 58 1015.0
20260902182400 94 248 3.0 7.0 0.00 0.00 0.00 57 1015.2
20260902181856 93 207 11.0 15.0 0.00 0.00 0.00 59 1015.2
20260902181352 94 258 6.0 7.0 0.00 0.00 0.00 60 1015.3
20260902180851 93 186 5.0 7.0 0.00 0.00 0.00 61 1015.2
20260902180347 93 204 5.0 9.0 0.00 0.00 0.00 61 1015.2
20260902175842 93 222 7.0 15.0 0.00 0.00 0.00 61 1015.4
20260902175337 93 206 7.0 14.0 0.00 0.00 0.00 60 1015.3
20260902174832 94 265 4.0 9.0 0.00 0.00 0.00 58 1015.2
20260902174329 93 284 5.0 9.0 0.00 0.00 0.00 59 1015.4
20260902173819 93 226 5.0 8.0 0.00 0.00 0.00 63 1015.3
20260902173319 92 318 2.0 9.0 0.00 0.00 0.00 62 1015.6
20260902172813 91 265 5.0 9.0 0.00 0.00 0.00 64 1015.3
20260902172308 91 209 9.0 14.0 0.00 0.00 0.00 63 1015.4
20260902171803 91 228 2.0 11.0 0.00 0.00 0.00 64 1015.5
20260902171257 92 229 2.0 5.0 0.00 0.00 0.00 64 1015.8
20260902170754 92 211 8.0 9.0 0.00 0.00 0.00 63 1015.7
20260902170249 92 233 4.0 6.0 0.00 0.00 0.00 64 1015.6
20260902165744 92 244 2.0 4.0 0.00 0.00 0.00 65 1015.7
20260902165244 91 222 4.0 7.0 0.00 0.00 0.00 64 1015.7
20260902164738 92 233 5.0 7.0 0.00 0.00 0.00 64 1015.7
20260902164233 91 217 5.0 8.0 0.00 0.00 0.00 65 1015.6
20260902163728 91 236 3.0 8.0 0.00 0.00 0.00 65 1015.9
20260902163227 90 227 3.0 8.0 0.00 0.00 0.00 64 1015.9
20260902162726 90 248 6.0 10.0 0.00 0.00 0.00 64 1015.9
20260902162221 91 237 4.0 6.0 0.00 0.00 0.00 64 1015.9
20260902161716 90 252 1.0 7.0 0.00 0.00 0.00 66 1015.8
20260902161212 89 296 2.0 11.0 0.00 0.00 0.00 66 1015.8
20260902160709 89 218 2.0 9.0 0.00 0.00 0.00 67 1015.8
20260902160202 89 295 2.0 9.0 0.00 0.00 0.00 68 1016.0
20260902155701 89 214 1.0 7.0 0.00 0.00 0.00 69 1016.1
20260902155159 88 275 3.0 6.0 0.00 0.00 0.00 70 1016.0
20260902154654 88 228 4.0 9.0 0.00 0.00 0.00 70 1015.9
20260902154148 88 290 0.0 7.0 0.00 0.00 0.00 70 1016.3
20260902153643 88 210 7.0 10.0 0.00 0.00 0.00 69 1015.9
20260902153138 87 245 4.0 7.0 0.00 0.00 0.00 70 1016.0
20260902152634 86 203 9.0 9.0 0.00 0.00 0.00 72 1015.9
20260902152129 87 201 3.0 11.0 0.00 0.00 0.00 71 1015.8
20260902151625 86 192 4.0 10.0 0.00 0.00 0.00 72 1015.7
20260902151119 87 219 4.0 6.0 0.00 0.00 0.00 71 1015.7
20260902150615 87 209 4.0 9.0 0.00 0.00 0.00 72 1015.8
20260902150109 87 268 1.0 5.0 0.00 0.00 0.00 73 1015.4
20260902145604 85 215 2.0 11.0 0.00 0.00 0.00 75 1015.5
20260902145103 85 238 3.0 10.0 0.00 0.00 0.00 74 1015.6
20260902144600 85 237 3.0 7.0 0.00 0.00 0.00 75 1015.8
20260902144055 84 204 4.0 6.0 0.00 0.00 0.00 77 1015.8
20260902143550 84 219 3.0 7.0 0.00 0.00 0.00 78 1015.8
20260902143046 83 256 2.0 6.0 0.00 0.00 0.00 78 1015.7
20260902142543 83 242 3.0 7.0 0.00 0.00 0.00 78 1015.7
20260902142036 83 233 3.0 8.0 0.00 0.00 0.00 78 1015.8
20260902141536 83 207 11.0 11.0 0.00 0.00 0.00 76 1015.7
20260902141031 84 214 4.0 7.0 0.00 0.00 0.00 76 1015.7
20260902140526 83 208 4.0 8.0 0.00 0.00 0.00 77 1015.6
20260902140022 83 206 11.0 15.0 0.00 0.00 0.00 76 1016.0
20260902135520 83 229 0.0 5.0 0.00 0.00 0.00 77 1016.1
20260902135016 82 264 3.0 7.0 0.00 0.00 0.00 78 1016.0
20260902134511 82 213 4.0 8.0 0.00 0.00 0.00 79 1015.9
20260902134006 81 202 5.0 7.0 0.00 0.00 0.00 78 1016.1
20260902133501 81 223 2.0 7.0 0.00 0.00 0.00 79 1015.9
20260902132955 81 225 3.0 7.0 0.00 0.00 0.00 79 1016.2
20260902132450 80 227 2.0 7.0 0.00 0.00 0.00 80 1016.3
20260902131945 80 220 4.0 7.0 0.00 0.00 0.00 81 1016.1
20260902131442 80 185 2.0 6.0 0.00 0.00 0.00 81 1016.1
20260902130941 79 210 4.0 7.0 0.00 0.00 0.00 82 1016.2
20260902130438 78 208 3.0 6.0 0.00 0.00 0.00 83 1016.0
20260902125937 78 170 3.0 5.0 0.00 0.00 0.00 84 1016.0
20260902125434 77 201 2.0 6.0 0.00 0.00 0.00 84 1016.1
20260902124929 77 214 3.0 7.0 0.00 0.00 0.00 84 1016.2
20260902124425 77 221 5.0 6.0 0.00 0.00 0.00 84 1016.1
20260902123920 77 214 4.0 6.0 0.00 0.00 0.00 84 1016.3
20260902123417 77 205 2.0 6.0 0.00 0.00 0.00 85 1016.2
20260902122914 77 193 3.0 7.0 0.00 0.00 0.00 85 1016.2
20260902122411 77 194 4.0 6.0 0.00 0.00 0.00 85 1016.4
20260902121906 77 199 4.0 6.0 0.00 0.00 0.00 85 1016.1
20260902121401 77 207 2.0 4.0 0.00 0.00 0.00 85 1016.1
20260902120856 77 259 2.0 4.0 0.00 0.00 0.00 85 1015.9
20260902120352 76 200 3.0 5.0 0.00 0.00 0.00 86 1016.0
20260902115846 76 208 2.0 3.0 0.00 0.00 0.00 86 1016.0
20260902115343 76 180 2.0 4.0 0.00 0.00 0.00 86 1016.0
20260902114839 76 201 0.0 3.0 0.00 0.00 0.00 86 1016.1
20260902114334 76 260 2.0 4.0 0.00 0.00 0.00 87 1016.1
20260902113834 76 245 0.0 2.0 0.00 0.00 0.00 87 1016.1
20260902113330 76 197 2.0 6.0 0.00 0.00 0.00 86 1016.1
20260902112829 76 208 3.0 5.0 0.00 0.00 0.00 87 1016.1
20260902112326 75 256 2.0 5.0 0.00 0.00 0.00 87 1016.1
20260902111821 75 249 2.0 4.0 0.00 0.00 0.00 87 1016.1
20260902111317 76 219 3.0 5.0 0.00 0.00 0.00 86 1016.1
20260902110813 76 186 3.0 5.0 0.00 0.00 0.00 86 1016.1
20260902110309 76 241 1.0 3.0 0.00 0.00 0.00 87 1016.2
20260902105808 76 228 2.0 5.0 0.00 0.00 0.00 86 1015.8
20260902105306 76 211 2.0 5.0 0.00 0.00 0.00 86 1015.8
20260902104758 76 196 3.0 5.0 0.00 0.00 0.00 87 1016.1
20260902104255 76 210 2.0 6.0 0.00 0.00 0.00 87 1015.8
20260902103749 76 215 2.0 4.0 0.00 0.00 0.00 86 1016.1
20260902103249 76 215 1.0 5.0 0.00 0.00 0.00 86 1015.9
20260902102744 76 216 1.0 5.0 0.00 0.00 0.00 86 1015.9
20260902102242 76 221 2.0 4.0 0.00 0.00 0.00 86 1015.9
20260902101737 77 223 3.0 5.0 0.00 0.00 0.00 85 1015.9
20260902101232 77 228 2.0 6.0 0.00 0.00 0.00 85 1015.8
20260902100731 76 202 2.0 7.0 0.00 0.00 0.00 86 1016.0
20260902100225 76 217 3.0 3.0 0.00 0.00 0.00 86 1015.8
20260902095720 76 256 1.0 5.0 0.00 0.00 0.00 86 1015.9
20260902095214 76 212 2.0 5.0 0.00 0.00 0.00 86 1015.8
20260902094708 76 231 1.0 5.0 0.00 0.00 0.00 86 1015.7
20260902094206 76 213 2.0 5.0 0.00 0.00 0.00 86 1016.0
20260902093704 77 184 2.0 4.0 0.00 0.00 0.00 86 1015.7
20260902093159 77 175 1.0 4.0 0.00 0.00 0.00 86 1015.8
20260902092654 77 166 3.0 6.0 0.00 0.00 0.00 85 1015.6
20260902092148 77 194 5.0 8.0 0.00 0.00 0.00 85 1015.7
20260902091643 77 191 3.0 6.0 0.00 0.00 0.00 86 1015.7
20260902091140 77 167 0.0 5.0 0.00 0.00 0.00 86 1015.6